Tracking 31027 objects as of 19-Jul-2025
HD Live streaming from Space Station
objects crossing your sky now

STARLINK-31999

Track STARLINK-31999 now!
10-day predictions
STARLINK-31999 is classified as:


NORAD ID: 60101
Int'l Code: 2024-117L
Perigee: 481.6 km
Apogee: 483.2 km
Inclination: 53.2 °
Period: 94.1 minutes
Semi major axis: 6853 km
RCS: Unknown
Launch date: June 23, 2024
Source: United States (US)
Launch site: AIR FORCE EASTERN TEST RANGE (AFETR)
Your satellite tracking list
STARLINK-31009
Track 1 satellite(s)




NASA's NSSDC Master Catalog

Two Line Element Set (TLE):
1 60101U 24117L   25199.28067204 -.00000593  00000-0 -79044-5 0  9996
2 60101  53.1613  46.1996 0001210  94.4734 265.6405 15.30189353 60999
Source of the keplerian elements: AFSPC